Hanford, WA
on Wednesday, January 30, 2013

Wednesday
Previous Day Next Day
Daily Summary
 ActualAverage (KMWH)Record (KMWH)
Temperature
Mean Temperature °F / °C 32°F / 0°C  
Max Temperature 56°F / 13°C 39°F / 4°C 55°F / 12°C (2013)
Min Temperature 42°F / 6°C 25°F / -4°C -4°F / -20°C (1980)
Degree Days
Heating Degree Days 16 33  
Month to date heating degree days 1054  
Since 1 July heating degree days 3641  
Cooling Degree Days 0 0  
Month to date cooling degree days 0  
Year to date cooling degree days 0  
Moisture
Dew Point 35°F / 2°C   
Average Humidity 61    
Maximum Humidity 70    
Minimum Humidity 46    
Precipitation
Precipitation 0.00 in / 0.00 cm 0.02 in / 0.51 cm 0.35 in / 0.89 cm (1987)
Month to date precipitation 1.12  
Year to date precipitation 1.12  
Wind
Wind Speed 11 mph / 18 km/h   
Max Wind Speed 16 mph / 26 km/h   
Max Gust Speed 18 mph / 29 km/h   
Visibility 15 miles / 24 kilometers   
Events     

Key: T is trace of precipitation, MM is missing value
Source: NWS Daily Summary
Time(PST)TemperatureDew PointHumidity Pressure Visibility Wind DirectionWind SpeedGust SpeedPrecipitationEvents Conditions
12:50 AM 45.0°F / 7.2°C 35.1°F / 1.7°C 68% 30.19 in / 1022.3 hPa 15.0 miles / 24.1 kilometers West 12.7 mph / 20.4 km/h - N/A   Mostly Cloudy
1:50 AM 45.0°F / 7.2°C 35.1°F / 1.7°C 68% 30.19 in / 1022.3 hPa 15.0 miles / 24.1 kilometers WSW 13.8 mph / 22.2 km/h - N/A   Mostly Cloudy
2:50 AM 45.1°F / 7.3°C 34.5°F / 1.4°C 66% 30.20 in / 1022.6 hPa 15.0 miles / 24.1 kilometers West 5.8 mph / 9.3 km/h - N/A   Mostly Cloudy
3:50 AM 43.3°F / 6.3°C 33.6°F / 0.9°C 69% 30.18 in / 1021.9 hPa 15.0 miles / 24.1 kilometers West 4.6 mph / 7.4 km/h - N/A   Mostly Cloudy
4:50 AM 43.5°F / 6.4°C 32.9°F / 0.5°C 66% 30.16 in / 1021.3 hPa 15.0 miles / 24.1 kilometers West 15.0 mph / 24.1 km/h - N/A   Scattered Clouds
5:50 AM 44.2°F / 6.8°C 32.7°F / 0.4°C 64% 30.17 in / 1021.4 hPa 15.0 miles / 24.1 kilometers WSW 13.8 mph / 22.2 km/h - N/A   Scattered Clouds
6:50 AM 42.3°F / 5.7°C 33.1°F / 0.6°C 70% 30.17 in / 1021.4 hPa 15.0 miles / 24.1 kilometers SW 8.1 mph / 13.0 km/h - N/A   Mostly Cloudy
7:50 AM 45.7°F / 7.6°C 34.2°F / 1.2°C 64% 30.16 in / 1021.2 hPa 15.0 miles / 24.1 kilometers SW 13.8 mph / 22.2 km/h - N/A   Mostly Cloudy
8:50 AM 46.6°F / 8.1°C 35.1°F / 1.7°C 64% 30.16 in / 1021.2 hPa 15.0 miles / 24.1 kilometers WSW 15.0 mph / 24.1 km/h - N/A   Mostly Cloudy
9:50 AM 50.4°F / 10.2°C 35.2°F / 1.8°C 56% 30.20 in / 1022.5 hPa 15.0 miles / 24.1 kilometers WSW 16.1 mph / 25.9 km/h - N/A   Mostly Cloudy
10:50 AM 52.5°F / 11.4°C 35.6°F / 2.0°C 53% 30.20 in / 1022.7 hPa 15.0 miles / 24.1 kilometers WSW 11.5 mph / 18.5 km/h - N/A   Mostly Cloudy
11:50 AM 52.7°F / 11.5°C 35.4°F / 1.9°C 52% 30.20 in / 1022.7 hPa 15.0 miles / 24.1 kilometers WSW 10.4 mph / 16.7 km/h - N/A   Mostly Cloudy
12:50 PM 54.7°F / 12.6°C 36.7°F / 2.6°C 51% 30.19 in / 1022.4 hPa 15.0 miles / 24.1 kilometers West 11.5 mph / 18.5 km/h - N/A   Mostly Cloudy
1:50 PM 56.8°F / 13.8°C 36.0°F / 2.2°C 46% 30.19 in / 1022.4 hPa 15.0 miles / 24.1 kilometers WSW 12.7 mph / 20.4 km/h - N/A   Mostly Cloudy
2:50 PM 55.8°F / 13.2°C 36.1°F / 2.3°C 48% 30.21 in / 1022.8 hPa 15.0 miles / 24.1 kilometers SW 12.7 mph / 20.4 km/h 18.4 mph / 29.6 km/h N/A   Mostly Cloudy
3:50 PM 55.6°F / 13.1°C 36.9°F / 2.7°C 49% 30.21 in / 1023.0 hPa 15.0 miles / 24.1 kilometers West 6.9 mph / 11.1 km/h - N/A   Mostly Cloudy
4:50 PM 49.3°F / 9.6°C 36.0°F / 2.2°C 60% 30.22 in / 1023.3 hPa 15.0 miles / 24.1 kilometers WSW 8.1 mph / 13.0 km/h - N/A   Mostly Cloudy
5:50 PM 46.6°F / 8.1°C 35.4°F / 1.9°C 65% 30.22 in / 1023.3 hPa 15.0 miles / 24.1 kilometers NNW 5.8 mph / 9.3 km/h - N/A   Mostly Cloudy
6:50 PM 46.2°F / 7.9°C 35.2°F / 1.8°C 66% 30.24 in / 1023.8 hPa 15.0 miles / 24.1 kilometers West 11.5 mph / 18.5 km/h - N/A   Mostly Cloudy
9:50 PM 47.5°F / 8.6°C 36.1°F / 2.3°C 65% 30.25 in / 1024.4 hPa 15.0 miles / 24.1 kilometers West 11.5 mph / 18.5 km/h - N/A   Mostly Cloudy
10:50 PM 47.5°F / 8.6°C 36.1°F / 2.3°C 65% 30.27 in / 1024.8 hPa 15.0 miles / 24.1 kilometers West 11.5 mph / 18.5 km/h - N/A   Overcast
11:50 PM 45.5°F / 7.5°C 36.0°F / 2.2°C 69% 30.27 in / 1025.0 hPa 15.0 miles / 24.1 kilometers West 9.2 mph / 14.8 km/h - N/A   Overcast
Moon Phase
Jan. 30 Feb. 03 Feb. 10 Feb. 17 Feb. 25
Sunrise:07:24 AM (PST) Moon Rise:09:22 PM (PST)1/30
Sunset:04:59 PM (PST) Moon Set:08:38 AM (PST)1/30

Copyright © 2014 The Weather Underground, Inc.